FW8607 Weather Reports


time (UTC)temp
F
wind
direction
speed
knots
gust
knots
rain 1hr
in
rain 24hr
in
rain mn
in
humidity
%
barometer
mb
20260901003020 81 248 6.1 10.4 0.00 0.00 0.00 56 1012.0
20260901000017 82 248 7.0 13.0 0.00 0.00 0.00 54 1012.3
20260831233019 82 248 7.0 13.0 0.00 0.00 0.00 53 1012.3
20260831230019 82 248 8.7 14.8 0.00 0.00 0.00 53 1012.5
20260831223019 83 248 8.7 15.6 0.00 0.00 0.00 52 1012.8
20260831220019 84 248 8.7 16.5 0.00 0.00 0.00 52 1012.9
20260831213019 84 248 8.7 15.6 0.00 0.00 0.00 49 1012.8
20260831210019 84 248 8.7 14.8 0.00 0.00 0.00 49 1013.2
20260831203019 85 270 7.8 12.2 0.00 0.00 0.00 47 1013.4
20260831200019 84 248 8.7 13.9 0.00 0.00 0.00 47 1013.4
20260831193018 84 248 7.8 14.8 0.00 0.00 0.00 50 1013.6
20260831190038 84 248 7.8 13.0 0.00 0.00 0.00 52 1013.6
20260831183018 84 270 6.1 11.3 0.00 0.00 0.00 50 1013.6
20260831180038 82 270 5.2 10.4 0.00 0.00 0.00 51 1013.6
20260831173018 80 270 5.2 10.4 0.00 0.00 0.00 50 1013.6
20260831170018 78 270 4.3 8.7 0.00 0.00 0.00 61 1013.4
20260831163018 75 293 0.9 5.2 0.00 0.00 0.00 71 1013.3
20260831160018 73 68 0.9 3.5 0.00 0.00 0.00 74 1013.5
20260831153018 69 90 1.7 6.1 0.00 0.00 0.00 88 1013.1
20260831150018 67 135 1.7 3.5 0.00 0.00 0.00 94 1013.1
20260831143038 66 180 0.9 4.3 0.00 0.00 0.00 95 1013.0
20260831140038 65 158 1.7 4.3 0.00 0.00 0.00 95 1012.6
20260831133018 65 135 1.7 4.3 0.00 0.00 0.00 95 1012.3
20260831130018 66 180 0.9 4.3 0.00 0.00 0.00 95 1012.2
20260831123018 65 180 1.7 4.3 0.00 0.00 0.00 95 1012.1
20260831120018 66 135 1.7 5.2 0.00 0.00 0.00 95 1011.9
20260831113017 67 90 1.7 4.3 0.00 0.00 0.00 95 1012.2
20260831110017 67 338 0.9 4.3 0.00 0.00 0.00 95 1012.3
20260831103018 67 248 0.9 3.5 0.00 0.00 0.00 95 1012.4
20260831100017 67 293 0.9 4.3 0.00 0.00 0.00 94 1012.4
20260831093019 67 270 1.7 3.5 0.00 0.00 0.00 94 1012.3
20260831090019 66 0.0 0.0 0.00 0.00 0.00 93 1012.4
20260831083040 67 0.0 0.0 0.00 0.00 0.00 93 1012.6
20260831080020 67 0.0 0.0 0.00 0.00 0.00 92 1012.6
20260831073019 67 0.0 0.0 0.00 0.00 0.00 92 1012.7
20260831070019 67 0.0 0.0 0.00 0.00 0.00 92 1012.7
20260831063019 68 0.0 0.0 0.00 0.00 0.00 91 1012.8
20260831060019 68 0.0 1.7 0.00 0.00 0.00 91 1012.4
20260831053019 68 270 2.6 3.5 0.00 0.00 0.00 90 1012.2
20260831050019 69 270 2.6 6.1 0.00 0.00 0.00 89 1011.9
20260831043039 69 270 4.3 7.0 0.00 0.00 0.00 87 1011.6
20260831040039 70 270 3.5 7.0 0.00 0.00 0.00 85 1011.4
20260831033019 71 270 3.5 6.1 0.00 0.00 0.00 83 1011.1
20260831030039 72 270 4.3 7.0 0.00 0.00 0.00 81 1010.6
20260831023038 74 270 3.5 7.0 0.00 0.00 0.00 76 1010.6
20260831020018 76 270 5.2 8.7 0.00 0.00 0.00 72 1010.8
20260831013039 79 248 6.1 9.6 0.00 0.00 0.00 67 1010.6
20260831010019 80 248 7.0 12.2 0.00 0.00 0.00 62 1010.8